[[{"header":{"parameterUnit":"m.s-1","parameterCategory":2,"la1":30.2991,"la2":30.254,"lo1":-89.0895,"lo2":-89.0444,"dy":0.0017,"dx":0.0017,"nx":28,"ny":28,"refTime":"2023-11-08T03:00:00:Z","depth":"0","parameterNumber":2,"parameterNumberName":"U-component_of_CURRENTS"},"data":[0,0,0,0,0,0,0,0,0,0,0,0,0,0,0,0,0,0,0,0,0,0,0,0,0,0,0,0,0,0,0,0,0,0,0,0,0,0,0,0,0,0,0,0,0,0,0,0,0,0,0,0,0,0,0,0,0,0,0.1765,0.1765,0,0.1721,0.172,0.172,0.1708,0.1708,0.1709,0.1709,0.164,0.1638,0.1635,0,0,0,0,0,0,0,0,0,0,0,0,0,0.1775,0.1775,0.1765,0.1765,0.1764,0.1721,0.172,0.172,0.1708,0.1708,0.1709,0.1709,0.1641,0.1638,0.1635,0,0,0,0,0,0,0,0,0,0,0,0,0,0.1752,0.1775,0.1765,0.1755,0.1754,0.1721,0.172,0.1719,0.1708,0.1708,0.1709,0.171,0.1641,0.1638,0.1635,0.1599,0,0,0.1624,0.1623,0,0,0,0,0,0,0,0,0.1754,0.1752,0.1757,0.1755,0.1754,0.1723,0.1699,0.1679,0.1707,0.1722,0.1709,0.171,0.1666,0.1661,0.1648,0.1596,0.1593,0.1624,0.1622,0.162,0.1619,0,0,0,0,0,0,0,0.1755,0.1753,0.1745,0.1756,0.1755,0.1731,0.1729,0.1694,0.1689,0.1721,0.1721,0.172,0.1665,0.1651,0.1646,0.1592,0.1624,0.1621,0.1619,0.1618,0.1506,0.1506,0,0,0,0,0,0,0.1768,0.1755,0.1747,0.1744,0.1758,0.1731,0.1728,0.173,0.1689,0.1685,0.1719,0.1719,0.1657,0.165,0.1644,0.1606,0.162,0.1617,0.1615,0.1507,0.1506,0.1505,0,0,0,0,0,0,0.1769,0.1768,0.1748,0.175,0.1746,0.1731,0.1732,0.1729,0.1718,0.1689,0.1683,0.1712,0.1657,0.1649,0.1621,0.1603,0.1616,0.1613,0.1508,0.1507,0.1506,0.1525,0,0,0,0,0,0,0.1769,0.1768,0.177,0.1751,0.1747,0.1727,0.1732,0.1728,0.1717,0.1717,0.168,0.1675,0.1657,0.1627,0.1618,0.1598,0.161,0.151,0.1508,0.1506,0.1526,0.1525,0.1524,0,0,0,0,0,0.177,0.1769,0.1771,0.1769,0.1751,0.1727,0.1721,0.1711,0.1716,0.1704,0.169,0.1676,0.1609,0.1623,0.1613,0.1592,0.151,0.1508,0.1506,0.1526,0.1525,0.1524,0,0,0,0,0,0,0.1771,0.1768,0.1769,0.1767,0.1749,0.1726,0.1719,0.171,0.1688,0.1696,0.1668,0.1661,0.1628,0.1606,0.1622,0.1554,0.1555,0.1551,0.1573,0.1572,0.1571,0.1621,0.1607,0,0,0,0,0,0.1774,0.1778,0.1762,0.1761,0.1755,0.1737,0.1727,0.172,0.1701,0.1693,0.1669,0.1642,0.1609,0.1591,0.156,0.1523,0.1572,0.1501,0.15,0.1499,0.1532,0.157,0.1578,0.1499,0.1499,0.1499,0,0,0.1776,0.1775,0.1777,0.1762,0.1752,0.1745,0.1732,0.1721,0.1717,0.1688,0.1674,0.1639,0.1599,0.1564,0.1545,0.1544,0.1553,0.1497,0.1497,0.1531,0.1569,0.1578,0.1585,0.1497,0.1498,0.1498,0,0,0.1781,0.1781,0.1784,0.1772,0.176,0.175,0.1748,0.1725,0.1717,0.1696,0.1673,0.1634,0.1587,0.1553,0.1531,0.1503,0.1549,0.1484,0.1517,0.1553,0.1561,0.1569,0.168,0.1697,0.148,0.148,0.148,0,0.1783,0.1787,0.1778,0.1775,0.177,0.1756,0.1753,0.1741,0.1712,0.1708,0.1698,0.1632,0.1584,0.1547,0.1538,0.1502,0.157,0.1525,0.1556,0.1565,0.1572,0.1684,0.1703,0.1481,0.1481,0.1481,0.1481,0,0.1789,0.179,0.179,0.1791,0.1781,0.1775,0.1763,0.1754,0.1746,0.1734,0.1702,0.1645,0.1614,0.157,0.1549,0.1557,0.1608,0.1556,0.1571,0.1582,0.1699,0.1719,0.1482,0.1482,0.1481,0.1481,0,0,0.1795,0.1795,0.1796,0.1796,0.1789,0.178,0.1784,0.1774,0.1782,0.1751,0.176,0.1678,0.1666,0.1642,0.1593,0.1608,0.1708,0.1619,0.162,0.1754,0.1875,0.1909,0.1935,0.1677,0.168,0.1682,0.1951,0,0.18,0.1803,0.1803,0.1804,0.1802,0.1797,0.1798,0.1793,0.1789,0.1796,0.1754,0.1736,0.1689,0.1671,0.1685,0.169,0.1757,0.1646,0.1825,0.1832,0.1878,0.1955,0.1943,0.218,0.197,0.1973,0.1976,0,0.1798,0.1805,0.1807,0.181,0.1809,0.181,0.1818,0.1817,0.183,0.1829,0.1828,0.1817,0.1827,0.178,0.1869,0.1814,0.1875,0.1889,0.1898,0.1942,0.1901,0.2123,0.2224,0.2199,0.2006,0.2004,0.2002,0,0.1792,0.1801,0.1806,0.1806,0.181,0.1813,0.1818,0.1825,0.183,0.1862,0.1881,0.1904,0.1915,0.1979,0.2025,0.1968,0.2162,0.2072,0.2182,0.2188,0.2219,0.2222,0.2334,0.2187,0.2186,0.2185,0.2184,0,0.1784,0.1783,0.1805,0.1803,0.1809,0.1816,0.1823,0.1831,0.1861,0.1872,0.1903,0.1925,0.1967,0.2066,0.211,0.2243,0.2245,0.2246,0.2261,0.2227,0.2228,0.2236,0.2164,0.2195,0.2193,0.2191,0.2189,0,0.1754,0.1772,0.1771,0.1792,0.1798,0.1798,0.1816,0.1825,0.1863,0.1889,0.1908,0.1984,0.2104,0.2195,0.2315,0.2352,0.2407,0.2509,0.2511,0.2519,0.2542,0.247,0.2391,0.2364,0.2678,0.268,0.2682,0,0.173,0.1731,0.1755,0.1757,0.1761,0.1771,0.1774,0.1811,0.1823,0.1906,0.1921,0.2064,0.2133,0.2382,0.2503,0.2681,0.2524,0.276,0.2607,0.2599,0.2529,0.2265,0.2227,0.2688,0.269,0.2692,0.2693,0,0.168,0.1694,0.1698,0.1711,0.1717,0.1727,0.1741,0.1757,0.1803,0.1852,0.1929,0.2005,0.2254,0.2415,0.2667,0.2753,0.2619,0.2796,0.277,0.2556,0.2293,0.2255,0.2504,0.2707,0.2706,0.2705,0.2704,0.2704,0.1632,0.1629,0.1643,0.1648,0.1661,0.1674,0.1668,0.1707,0.1744,0.1801,0.1895,0.2002,0.2252,0.2586,0.2742,0.2937,0.2721,0.2864,0.2796,0.2543,0.2435,0.2756,0.2954,0.2954,0.2954,0.2954,0.2954,0,0.1558,0.1572,0.1578,0.1584,0.1579,0.1611,0.1633,0.163,0.1662,0.1753,0.1826,0.204,0.2301,0.2566,0.286,0.2912,0.2782,0.2873,0.2518,0.25,0.2829,0.2752,0.2934,0.2934,0.2934,0.2934,0.2934,0.2934,0.1519,0.1504,0.1518,0.1498,0.1507,0.1489,0.1496,0.1522,0.1574,0.1666,0.1764,0.1863,0.2108,0.2471,0.2737,0.2783,0.2609,0.2492,0.2453,0.2727,0.272,0.2712,0.2627,0.278,0.278,0.2048,0.2043,0.2039]},{"header":{"parameterUnit":"m.s-1","parameterCategory":2,"la1":30.2991,"la2":30.254,"lo1":-89.0895,"lo2":-89.0444,"dy":0.0017,"dx":0.0017,"nx":28,"ny":28,"refTime":"2023-11-08T03:00:00:Z","depth":"0","parameterNumber":3,"parameterNumberName":"V-component_of_CURRENTS"},"data":[0,0,0,0,0,0,0,0,0,0,0,0,0,0,0,0,0,0,0,0,0,0,0,0,0,0,0,0,0,0,0,0,0,0,0,0,0,0,0,0,0,0,0,0,0,0,0,0,0,0,0,0,0,0,0,0,0,0,-0.0454,-0.0454,0,-0.048,-0.0481,-0.0481,-0.0455,-0.0454,-0.0453,-0.0452,-0.0404,-0.0403,-0.0403,0,0,0,0,0,0,0,0,0,0,0,0,0,-0.0407,-0.0408,-0.0454,-0.0454,-0.0454,-0.048,-0.0481,-0.0481,-0.0455,-0.0454,-0.0452,-0.0451,-0.0404,-0.0404,-0.0403,0,0,0,0,0,0,0,0,0,0,0,0,0,-0.043,-0.0408,-0.0454,-0.0445,-0.0444,-0.048,-0.0481,-0.0481,-0.0455,-0.0454,-0.0452,-0.0451,-0.0404,-0.0404,-0.0403,-0.043,0,0,-0.0402,-0.0401,0,0,0,0,0,0,0,0,-0.0428,-0.0431,-0.0446,-0.0445,-0.0445,-0.0463,-0.0447,-0.0461,-0.0456,-0.0451,-0.0452,-0.045,-0.0418,-0.0416,-0.0425,-0.0428,-0.0426,-0.0402,-0.0401,-0.0401,-0.0401,0,0,0,0,0,0,0,-0.0427,-0.043,-0.0464,-0.0446,-0.0446,-0.0449,-0.045,-0.045,-0.0441,-0.0451,-0.0449,-0.0453,-0.0417,-0.0426,-0.0424,-0.0425,-0.0402,-0.0401,-0.0401,-0.0401,-0.0459,-0.0461,0,0,0,0,0,0,-0.0425,-0.0429,-0.0463,-0.0465,-0.0433,-0.0451,-0.0452,-0.0458,-0.0443,-0.0439,-0.0454,-0.0452,-0.0428,-0.0424,-0.0422,-0.0443,-0.0401,-0.0401,-0.04,-0.0457,-0.0459,-0.0461,0,0,0,0,0,0,-0.0424,-0.0428,-0.0462,-0.0447,-0.0452,-0.0453,-0.046,-0.046,-0.0468,-0.0446,-0.0441,-0.0463,-0.0426,-0.0423,-0.0438,-0.0441,-0.04,-0.04,-0.0455,-0.0458,-0.046,-0.0492,0,0,0,0,0,0,-0.0422,-0.0427,-0.0436,-0.0447,-0.0453,-0.0488,-0.0462,-0.0461,-0.0473,-0.047,-0.0452,-0.0446,-0.0425,-0.0439,-0.0437,-0.044,-0.0399,-0.0452,-0.0456,-0.0459,-0.0488,-0.0495,-0.0501,0,0,0,0,0,-0.0421,-0.0436,-0.0436,-0.044,-0.0463,-0.0489,-0.0493,-0.0488,-0.0475,-0.0488,-0.0483,-0.0447,-0.0459,-0.0441,-0.0438,-0.044,-0.0451,-0.0455,-0.0459,-0.0485,-0.0494,-0.0501,0,0,0,0,0,0,-0.0423,-0.0436,-0.0435,-0.0455,-0.0473,-0.0485,-0.0499,-0.0497,-0.0506,-0.0501,-0.0474,-0.047,-0.0486,-0.0471,-0.0451,-0.0472,-0.0448,-0.0452,-0.0469,-0.0476,-0.0483,-0.0451,-0.0399,0,0,0,0,0,-0.0429,-0.044,-0.0458,-0.0474,-0.0487,-0.0496,-0.0507,-0.0507,-0.0515,-0.0517,-0.0507,-0.0501,-0.0505,-0.0496,-0.0502,-0.0512,-0.0462,-0.0514,-0.052,-0.0526,-0.0502,-0.0458,-0.0456,-0.0475,-0.0475,-0.0475,0,0,-0.043,-0.0443,-0.0446,-0.0476,-0.049,-0.0501,-0.0499,-0.0523,-0.0523,-0.0511,-0.0516,-0.0529,-0.0519,-0.0533,-0.0537,-0.0514,-0.0496,-0.0531,-0.0535,-0.0508,-0.0462,-0.0459,-0.0457,-0.0478,-0.0477,-0.0477,0,0,-0.0435,-0.0458,-0.0465,-0.0482,-0.0509,-0.0518,-0.0526,-0.0548,-0.0551,-0.0571,-0.0563,-0.0578,-0.0582,-0.0572,-0.0566,-0.0613,-0.0542,-0.0622,-0.061,-0.0569,-0.0565,-0.0562,-0.0489,-0.0479,-0.0612,-0.0612,-0.0612,0,-0.0429,-0.0444,-0.0474,-0.0486,-0.0489,-0.0523,-0.0524,-0.0544,-0.0564,-0.0559,-0.0574,-0.0587,-0.0593,-0.0581,-0.0607,-0.0621,-0.0575,-0.0577,-0.0572,-0.0567,-0.0563,-0.049,-0.0478,-0.0614,-0.0614,-0.0613,-0.0613,0,-0.0437,-0.0446,-0.0459,-0.0474,-0.049,-0.0506,-0.0529,-0.0547,-0.0561,-0.0565,-0.058,-0.0607,-0.0595,-0.0621,-0.0628,-0.0609,-0.0579,-0.0592,-0.054,-0.0562,-0.0485,-0.0472,-0.0617,-0.0616,-0.0615,-0.0615,0,0,-0.0403,-0.0448,-0.0447,-0.0444,-0.0481,-0.0489,-0.0505,-0.0513,-0.0497,-0.0545,-0.0515,-0.0571,-0.058,-0.0576,-0.0595,-0.0577,-0.053,-0.0573,-0.057,-0.0478,-0.0405,-0.0405,-0.0389,-0.0537,-0.0536,-0.0534,-0.036,0,-0.0387,-0.0397,-0.0424,-0.0419,-0.0422,-0.0451,-0.0453,-0.0467,-0.0482,-0.0471,-0.0505,-0.0498,-0.0562,-0.0556,-0.0556,-0.0539,-0.0498,-0.0573,-0.0417,-0.0411,-0.0389,-0.0376,-0.0335,-0.0178,-0.0346,-0.0344,-0.0343,0,-0.0369,-0.0377,-0.0371,-0.0375,-0.0377,-0.0377,-0.0366,-0.0374,-0.0379,-0.0387,-0.0396,-0.0413,-0.0409,-0.0461,-0.0412,-0.0455,-0.0425,-0.0413,-0.0406,-0.0378,-0.0386,-0.0188,-0.0147,-0.0136,-0.0322,-0.0323,-0.0325,0,-0.0318,-0.033,-0.032,-0.0323,-0.0342,-0.033,-0.0334,-0.0339,-0.0329,-0.0318,-0.0296,-0.0308,-0.0288,-0.028,-0.029,-0.0331,-0.0216,-0.026,-0.0216,-0.0214,-0.0132,-0.0127,-0.0039,-0.019,-0.019,-0.0191,-0.0191,0,-0.0283,-0.027,-0.0291,-0.0283,-0.0257,-0.028,-0.0246,-0.0253,-0.0239,-0.0207,-0.0242,-0.0206,-0.0243,-0.0203,-0.0222,-0.0173,-0.015,-0.0188,-0.0168,-0.0145,-0.0144,-0.0094,-0.0125,-0.0184,-0.0186,-0.0187,-0.0188,0,-0.0235,-0.0252,-0.0235,-0.0238,-0.0236,-0.0212,-0.0198,-0.0175,-0.0164,-0.0115,-0.0102,-0.0093,-0.0044,-0.0063,-0.002,-0.0059,-0.0025,-0.0007,0.003,0.0049,0.0058,0.0022,0.0063,0.0066,0.0079,0.008,0.0081,0,-0.0215,-0.0204,-0.0196,-0.0183,-0.0183,-0.0158,-0.0145,-0.014,-0.0112,-0.0046,-0.0013,0.0054,0.0094,0.0156,0.0118,0.014,0.0075,0.0178,0.0083,0.009,0.0066,-0.0038,-0.0046,0.0198,0.02,0.0201,0.0202,0,-0.0173,-0.0171,-0.0161,-0.0138,-0.0117,-0.0092,-0.0065,-0.0031,-0.001,0.0044,0.0125,0.0175,0.0235,0.0272,0.0281,0.0263,0.0152,0.0207,0.0215,0.0171,0.0068,0.0071,0.0067,0.0215,0.0214,0.0213,0.0212,0.0212,-0.0141,-0.0125,-0.0117,-0.0093,-0.0069,-0.0031,0.0004,0.0042,0.0104,0.0202,0.0235,0.035,0.0418,0.043,0.0367,0.0344,0.0257,0.0331,0.0298,0.0199,0.0158,0.0181,0.0327,0.0326,0.0325,0.0325,0.0325,0,-0.0107,-0.01,-0.0076,-0.0046,-0.0013,-0.0009,0.0048,0.0095,0.0176,0.0294,0.0381,0.0583,0.0613,0.0599,0.0588,0.0492,0.0363,0.0432,0.0326,0.0321,0.0386,0.0345,0.0499,0.0499,0.0499,0.0499,0.0499,0.0499,-0.0089,-0.0068,-0.0062,-0.0008,0.0017,0.0075,0.0113,0.019,0.0282,0.0493,0.0659,0.0782,0.0984,0.0795,0.0695,0.0608,0.0485,0.0394,0.0353,0.0433,0.0421,0.041,0.0366,0.0522,0.0522,0.0294,0.0293,0.0291]}],[{"header":{"parameterUnit":"m.s-1","parameterCategory":2,"la1":30.2991,"la2":30.254,"lo1":-89.0895,"lo2":-89.0444,"dy":0.0017,"dx":0.0017,"nx":28,"ny":28,"refTime":"2023-11-08T03:00:00:Z","depth":"2","parameterNumber":2,"parameterNumberName":"U-component_of_CURRENTS"},"data":[0,0,0,0,0,0,0,0,0,0,0,0,0,0,0,0,0,0,0,0,0,0,0,0,0,0,0,0,0,0,0,0,0,0,0,0,0,0,0,0,0,0,0,0,0,0,0,0,0,0,0,0,0,0,0,0,0,0,-0.0653,-0.0653,0,-0.0621,-0.0621,-0.062,-0.0599,-0.0598,-0.0598,-0.0598,-0.0576,-0.0576,-0.0575,0,0,0,0,0,0,0,0,0,0,0,0,0,-0.0715,-0.0714,-0.0653,-0.0653,-0.0652,-0.0621,-0.0621,-0.062,-0.0599,-0.0598,-0.0598,-0.0598,-0.0576,-0.0576,-0.0575,0,0,0,0,0,0,0,0,0,0,0,0,0,-0.0686,-0.0713,-0.0654,-0.0637,-0.0636,-0.0621,-0.0621,-0.062,-0.0599,-0.0598,-0.0598,-0.0598,-0.0577,-0.0576,-0.0575,-0.0578,0,0,-0.0574,-0.0573,0,0,0,0,0,0,0,0,-0.0688,-0.0684,-0.064,-0.0638,-0.0636,-0.0613,-0.0634,-0.0606,-0.0599,-0.0614,-0.0598,-0.0598,-0.0589,-0.0588,-0.0583,-0.0577,-0.0576,-0.0574,-0.0573,-0.0573,-0.0573,0,0,0,0,0,0,0,-0.069,-0.0686,-0.0641,-0.064,-0.0637,-0.0638,-0.0633,-0.0629,-0.0604,-0.0612,-0.061,-0.0606,-0.0588,-0.0584,-0.0582,-0.0576,-0.0574,-0.0573,-0.0573,-0.0573,-0.0538,-0.0537,0,0,0,0,0,0,-0.0692,-0.0687,-0.0642,-0.064,-0.0661,-0.0637,-0.0632,-0.0621,-0.0604,-0.0601,-0.0606,-0.0605,-0.0585,-0.0583,-0.0582,-0.0546,-0.0573,-0.0572,-0.0572,-0.0539,-0.0538,-0.0537,0,0,0,0,0,0,-0.0693,-0.0688,-0.0644,-0.0663,-0.0657,-0.0636,-0.0624,-0.0621,-0.0607,-0.0599,-0.0596,-0.0595,-0.0585,-0.0582,-0.0568,-0.0546,-0.0572,-0.0572,-0.0539,-0.0538,-0.0538,-0.0499,0,0,0,0,0,0,-0.0695,-0.0688,-0.068,-0.0663,-0.0656,-0.0627,-0.0624,-0.062,-0.0605,-0.0603,-0.0589,-0.0587,-0.0584,-0.0568,-0.0567,-0.0546,-0.0571,-0.054,-0.0539,-0.0538,-0.0501,-0.0497,-0.0494,0,0,0,0,0,-0.0697,-0.0684,-0.068,-0.0675,-0.0646,-0.0627,-0.0623,-0.0608,-0.0605,-0.0596,-0.0586,-0.0587,-0.056,-0.0567,-0.0566,-0.0544,-0.054,-0.0539,-0.0538,-0.0503,-0.0498,-0.0494,0,0,0,0,0,0,-0.0706,-0.068,-0.0675,-0.0655,-0.064,-0.0623,-0.0609,-0.0605,-0.059,-0.0585,-0.0582,-0.0579,-0.0558,-0.056,-0.0568,-0.0532,-0.055,-0.0548,-0.0524,-0.0519,-0.0515,-0.0497,-0.0571,0,0,0,0,0,-0.0705,-0.0686,-0.0668,-0.0651,-0.0641,-0.0626,-0.0616,-0.0606,-0.0592,-0.0584,-0.0575,-0.0565,-0.0553,-0.0543,-0.0536,-0.0518,-0.0496,-0.0503,-0.0499,-0.0496,-0.048,-0.0437,-0.0427,-0.0533,-0.0533,-0.0533,0,0,-0.0703,-0.0686,-0.0676,-0.0651,-0.0636,-0.0612,-0.0619,-0.0597,-0.0576,-0.0585,-0.0554,-0.0553,-0.0547,-0.0524,-0.0514,-0.052,-0.0453,-0.0494,-0.0492,-0.0477,-0.0434,-0.0424,-0.0415,-0.0532,-0.0532,-0.0532,0,0,-0.0684,-0.0674,-0.0649,-0.0634,-0.061,-0.06,-0.0592,-0.0571,-0.056,-0.0539,-0.0536,-0.052,-0.0508,-0.049,-0.0483,-0.0455,-0.0438,-0.0457,-0.0416,-0.0374,-0.0364,-0.0356,-0.0304,-0.0291,-0.045,-0.045,-0.045,0,-0.0683,-0.0647,-0.0641,-0.0613,-0.0592,-0.0591,-0.0559,-0.0549,-0.0527,-0.0509,-0.0524,-0.0486,-0.0487,-0.0444,-0.0435,-0.0444,-0.0414,-0.0433,-0.0367,-0.0358,-0.035,-0.0299,-0.0285,-0.0448,-0.0449,-0.0449,-0.0449,0,-0.0643,-0.0615,-0.0598,-0.056,-0.0541,-0.0515,-0.0499,-0.0481,-0.0474,-0.0462,-0.0427,-0.0429,-0.0401,-0.0403,-0.041,-0.0351,-0.0347,-0.037,-0.0375,-0.0337,-0.0286,-0.0272,-0.0445,-0.0446,-0.0447,-0.0447,0,0,-0.0629,-0.058,-0.0571,-0.0542,-0.0509,-0.0486,-0.0452,-0.0415,-0.038,-0.0376,-0.0328,-0.0321,-0.0322,-0.0314,-0.032,-0.0287,-0.021,-0.0299,-0.0298,-0.0241,-0.01,0.0007,0.0032,-0.0219,-0.0217,-0.0215,-0.0083,0,-0.0594,-0.0537,-0.0518,-0.0458,-0.0426,-0.0409,-0.0373,-0.0343,-0.0326,-0.0285,-0.0283,-0.0248,-0.0289,-0.0269,-0.0245,-0.0218,-0.0174,-0.0243,-0.0151,-0.0148,-0.0052,0.0052,-0.0163,-0.0054,-0.007,-0.0068,-0.0066,0,-0.055,-0.0518,-0.0458,-0.0397,-0.0379,-0.0345,-0.028,-0.0251,-0.0206,-0.0191,-0.0164,-0.016,-0.0111,-0.0159,-0.0082,-0.0122,-0.01,-0.0087,-0.0082,0.0018,-0.0014,-0.0098,-0.0028,-0.0043,-0.0045,-0.0047,-0.0048,0,-0.0533,-0.0469,-0.042,-0.04,-0.0339,-0.0302,-0.0269,-0.0219,-0.0176,-0.0127,-0.008,-0.005,-0.0004,0.0012,0.0043,-0.0012,0.014,0.0063,0.0182,0.0188,0.0026,0.0017,0.0133,0.0133,0.0133,0.0132,0.0132,0,-0.0498,-0.0453,-0.0407,-0.038,-0.031,-0.0279,-0.0204,-0.017,-0.0105,-0.0035,-0.003,0.0048,0.0045,0.0122,0.0107,0.0225,0.0198,0.0234,0.0249,0.0037,0.0028,0.0039,0.0027,0.0137,0.0136,0.0135,0.0134,0,-0.0473,-0.0448,-0.0386,-0.0324,-0.03,-0.0251,-0.0164,-0.0109,-0.0053,0.0042,0.0071,0.0159,0.028,0.0299,0.0364,0.0352,0.0414,0.0455,0.0228,0.0217,0.0408,0.0395,0.0598,0.0603,0.0607,0.0611,0.0614,0,-0.0451,-0.0422,-0.0353,-0.0314,-0.0279,-0.0211,-0.0156,-0.0093,-0.0031,0.012,0.018,0.0335,0.044,0.0604,0.0604,0.0655,0.0605,0.0501,0.0367,0.0472,0.0465,0.0445,0.0427,0.0145,0.0144,0.0144,0.0143,0,-0.041,-0.0389,-0.0343,-0.0273,-0.0212,-0.0145,-0.0065,-0.001,0.008,0.0177,0.0339,0.0441,0.0613,0.0613,0.0711,0.067,0.0472,0.0498,0.0661,0.0098,0.0067,0.0053,0.0045,0.0136,0.0137,0.0137,0.0138,0.0138,-0.0376,-0.0339,-0.0286,-0.0213,-0.0156,-0.0084,-0.0029,0.0055,0.016,0.027,0.0388,0.0483,0.0465,0.0569,0.0594,0.0585,0.0617,0.0443,0.0434,0.0429,0.0391,0.0374,0.0492,0.0495,0.0497,0.0499,0.0501,0,-0.0327,-0.0285,-0.0224,-0.0147,-0.0089,-0.006,0.0034,0.0068,0.0173,0.0248,0.0355,0.0324,0.0327,0.0377,0.0372,0.0412,0.0285,0.0348,0.0104,0.0108,0.0113,0.005,0.0065,0.0066,0.0067,0.0067,0,0,-0.0296,-0.0229,-0.0199,-0.0102,-0.0052,0.0021,0.0069,0.0101,0.0138,0.0212,0.0235,0.0212,0.0275,0.0153,0.0125,0.0122,0.0107,0.0082,0.0395,0.0102,0.0108,0.0104,0.0007,0,0,0,0,0]},{"header":{"parameterUnit":"m.s-1","parameterCategory":2,"la1":30.2991,"la2":30.254,"lo1":-89.0895,"lo2":-89.0444,"dy":0.0017,"dx":0.0017,"nx":28,"ny":28,"refTime":"2023-11-08T03:00:00:Z","depth":"2","parameterNumber":3,"parameterNumberName":"V-component_of_CURRENTS"},"data":[0,0,0,0,0,0,0,0,0,0,0,0,0,0,0,0,0,0,0,0,0,0,0,0,0,0,0,0,0,0,0,0,0,0,0,0,0,0,0,0,0,0,0,0,0,0,0,0,0,0,0,0,0,0,0,0,0,0,0.0416,0.0416,0,0.0397,0.0397,0.0397,0.0346,0.0345,0.0343,0.0342,0.0274,0.0273,0.0273,0,0,0,0,0,0,0,0,0,0,0,0,0,0.0426,0.0426,0.0416,0.0416,0.0415,0.0397,0.0397,0.0397,0.0346,0.0344,0.0343,0.0342,0.0274,0.0273,0.0273,0,0,0,0,0,0,0,0,0,0,0,0,0,0.0416,0.0426,0.0416,0.0388,0.0385,0.0397,0.0397,0.0397,0.0346,0.0344,0.0343,0.0341,0.0275,0.0274,0.0272,0.0299,0,0,0.0269,0.0268,0,0,0,0,0,0,0,0,0.0417,0.0416,0.0392,0.039,0.0386,0.0372,0.0375,0.0361,0.0347,0.0361,0.0342,0.034,0.0303,0.03,0.0301,0.0296,0.0293,0.0269,0.0268,0.0268,0.0267,0,0,0,0,0,0,0,0.0418,0.0417,0.0409,0.0392,0.0388,0.0382,0.0379,0.0373,0.0341,0.036,0.0356,0.0354,0.0301,0.0302,0.0299,0.0292,0.0269,0.0268,0.0267,0.0267,0.0259,0.0259,0,0,0,0,0,0,0.042,0.0417,0.0409,0.0408,0.0397,0.0383,0.0379,0.0378,0.0342,0.0335,0.0355,0.0352,0.0305,0.03,0.0296,0.0277,0.0268,0.0267,0.0266,0.0258,0.0259,0.0259,0,0,0,0,0,0,0.0421,0.042,0.041,0.0412,0.041,0.0385,0.0384,0.0379,0.0362,0.0339,0.0331,0.0341,0.0304,0.0298,0.0286,0.0276,0.0266,0.0265,0.0258,0.0258,0.0259,0.027,0,0,0,0,0,0,0.0421,0.042,0.0417,0.0412,0.041,0.0409,0.0386,0.038,0.0364,0.0359,0.0326,0.0318,0.0302,0.0288,0.0285,0.0274,0.0264,0.0257,0.0258,0.0259,0.0269,0.0271,0.0273,0,0,0,0,0,0.0422,0.0422,0.0417,0.0416,0.0408,0.0409,0.0408,0.0384,0.0365,0.0362,0.0343,0.0318,0.029,0.0288,0.0284,0.0272,0.0256,0.0258,0.0259,0.0268,0.0271,0.0273,0,0,0,0,0,0,0.0423,0.0417,0.0411,0.0409,0.0407,0.04,0.0392,0.0382,0.0366,0.0353,0.033,0.0323,0.0309,0.0296,0.0294,0.0275,0.0268,0.0268,0.0276,0.0278,0.028,0.0266,0.0263,0,0,0,0,0,0.0425,0.042,0.042,0.0416,0.0414,0.0403,0.0399,0.0386,0.0375,0.0364,0.0345,0.0325,0.0316,0.03,0.0293,0.0285,0.0259,0.0275,0.0276,0.0278,0.0265,0.0223,0.0219,0.0263,0.0263,0.0263,0,0,0.0422,0.0419,0.0415,0.0415,0.0408,0.041,0.0395,0.0386,0.0384,0.0361,0.0345,0.0334,0.0318,0.0308,0.03,0.0291,0.0257,0.0279,0.028,0.0267,0.0223,0.0219,0.0214,0.0263,0.0263,0.0263,0,0,0.0418,0.0414,0.0409,0.0412,0.0405,0.0405,0.0401,0.0394,0.0382,0.0379,0.036,0.0344,0.0329,0.0314,0.0305,0.0315,0.0274,0.0309,0.0296,0.0255,0.025,0.0246,0.0224,0.0218,0.0302,0.0302,0.0302,0,0.041,0.0411,0.0409,0.041,0.0409,0.0402,0.0402,0.0401,0.039,0.0379,0.0371,0.0344,0.0332,0.0313,0.0312,0.0316,0.0288,0.0287,0.0255,0.025,0.0245,0.0224,0.0216,0.0302,0.0302,0.0302,0.0302,0,0.0408,0.0408,0.0405,0.0405,0.0408,0.0406,0.0409,0.0403,0.0391,0.0385,0.0364,0.0352,0.0325,0.0326,0.0319,0.0282,0.0273,0.0267,0.0245,0.0241,0.022,0.0212,0.0303,0.0303,0.0303,0.0303,0,0,0.038,0.0399,0.0394,0.0399,0.0404,0.0407,0.0406,0.0402,0.0389,0.0379,0.0355,0.0345,0.0322,0.0311,0.0298,0.0264,0.0218,0.0243,0.0241,0.0214,0.0129,0.017,0.0165,0.0195,0.0193,0.0192,0.0133,0,0.0371,0.038,0.0389,0.0394,0.04,0.0401,0.0403,0.0399,0.0389,0.0369,0.0348,0.0325,0.0322,0.0299,0.0266,0.0227,0.0194,0.0234,0.0143,0.0141,0.017,0.0156,0.0143,0.0093,0.0125,0.0124,0.0123,0,0.0357,0.0369,0.0373,0.0392,0.0392,0.039,0.0382,0.0386,0.0365,0.0353,0.0322,0.0302,0.0256,0.0254,0.0173,0.0193,0.0156,0.0131,0.0128,0.0152,0.0166,0.01,0.0077,0.0109,0.011,0.0111,0.0112,0,0.0339,0.0354,0.0357,0.0363,0.0382,0.0372,0.0375,0.0366,0.0372,0.033,0.0321,0.0265,0.0234,0.0172,0.0127,0.0132,0.0042,0.0045,0.0054,0.0057,0.0021,0.0024,-0.0018,-0.0017,-0.0017,-0.0017,-0.0017,0,0.0327,0.0328,0.0344,0.0346,0.0347,0.0357,0.0349,0.0346,0.0338,0.0345,0.0302,0.0299,0.0206,0.0157,0.0109,0.0059,0.0024,0.0043,0.0038,0.003,0.0034,0.0026,0.0032,-0.0019,-0.0019,-0.0018,-0.0018,0,0.0306,0.0317,0.0326,0.0337,0.0339,0.0336,0.0352,0.036,0.0341,0.0345,0.0331,0.03,0.0238,0.0164,0.0069,0.0048,-0.0009,-0.0015,-0.0004,-0.0006,0.0038,0.0045,-0.0022,-0.0022,-0.0021,-0.002,-0.002,0,0.0299,0.0299,0.0316,0.0331,0.0332,0.0335,0.0353,0.0356,0.0379,0.0368,0.0382,0.0318,0.0324,0.0209,0.0131,0.0048,0.001,-0.0026,-0.0009,0.0032,0.0033,0.004,0.0046,-0.0053,-0.0053,-0.0053,-0.0052,0,0.0291,0.0289,0.0305,0.0334,0.0351,0.0384,0.0406,0.0429,0.0442,0.0459,0.049,0.0489,0.0388,0.0298,0.017,0.0119,-0.0015,-0.0021,-0.0019,-0.0029,0.0004,0.0006,0.0012,-0.0051,-0.0051,-0.0051,-0.0052,-0.0052,0.0284,0.0297,0.0323,0.035,0.0384,0.044,0.0475,0.0521,0.0575,0.0601,0.06,0.0546,0.0403,0.0237,0.0168,0.0055,0.0073,-0.0012,-0.0014,-0.0015,0.0012,0.0047,0.0005,0.0005,0.0005,0.0005,0.0005,0,0.0294,0.0316,0.0348,0.0397,0.0447,0.0456,0.0528,0.0575,0.0661,0.0637,0.0677,0.046,0.039,0.0205,0.0076,0.0045,0.0036,-0.0018,-0.0049,-0.005,-0.0051,-0.0026,-0.0044,-0.0044,-0.0044,-0.0044,0,0,0.0307,0.0339,0.0362,0.0445,0.0484,0.0563,0.0612,0.0682,0.0682,0.063,0.0523,0.0521,0.0313,0.0176,0.0109,0.0027,0.0012,0.002,0.0064,0.0038,0.0039,-0.0045,-0.0006,0,0,0,0,0]}],[{"header":{"parameterUnit":"m.s-1","parameterCategory":2,"la1":30.2991,"la2":30.254,"lo1":-89.0895,"lo2":-89.0444,"dy":0.0017,"dx":0.0017,"nx":28,"ny":28,"refTime":"2023-11-08T03:00:00:Z","depth":"4","parameterNumber":2,"parameterNumberName":"U-component_of_CURRENTS"},"data":[0,0,0,0,0,0,0,0,0,0,0,0,0,0,0,0,0,0,0,0,0,0,0,0,0,0,0,0,0,0,0,0,0,0,0,0,0,0,0,0,0,0,0,0,0,0,0,0,0,0,0,0,0,0,0,0,0,0,-0.0249,-0.0249,0,-0.0255,-0.0255,-0.0254,-0.0292,-0.0293,-0.0294,-0.0296,-0.0371,-0.0372,-0.0373,0,0,0,0,0,0,0,0,0,0,0,0,0,-0.0234,-0.0234,-0.0249,-0.0249,-0.0249,-0.0255,-0.0255,-0.0254,-0.0292,-0.0293,-0.0295,-0.0296,-0.0371,-0.0372,-0.0373,0,0,0,0,0,0,0,0,0,0,0,0,0,-0.0237,-0.0234,-0.0249,-0.0271,-0.0273,-0.0255,-0.0255,-0.0254,-0.0292,-0.0293,-0.0295,-0.0297,-0.037,-0.0372,-0.0373,-0.0346,0,0,-0.0377,-0.0378,0,0,0,0,0,0,0,0,-0.0237,-0.0237,-0.0267,-0.0269,-0.0272,-0.0277,-0.0277,-0.0289,-0.0291,-0.0281,-0.0296,-0.0298,-0.0347,-0.035,-0.0342,-0.0349,-0.0352,-0.0377,-0.0378,-0.0379,-0.0379,0,0,0,0,0,0,0,-0.0237,-0.0237,-0.0248,-0.0268,-0.027,-0.0269,-0.0271,-0.0279,-0.0303,-0.0282,-0.0286,-0.0291,-0.0348,-0.034,-0.0344,-0.0353,-0.0377,-0.0378,-0.0379,-0.038,-0.0469,-0.047,0,0,0,0,0,0,-0.0242,-0.0237,-0.0248,-0.0248,-0.0262,-0.0268,-0.027,-0.0271,-0.0301,-0.0308,-0.0289,-0.0293,-0.0337,-0.0343,-0.0347,-0.0398,-0.0379,-0.038,-0.0381,-0.0467,-0.0469,-0.0471,0,0,0,0,0,0,-0.0241,-0.0243,-0.0248,-0.0246,-0.0247,-0.0267,-0.0267,-0.027,-0.029,-0.0306,-0.0314,-0.0309,-0.0339,-0.0345,-0.038,-0.0398,-0.0381,-0.0382,-0.0466,-0.0468,-0.047,-0.0447,0,0,0,0,0,0,-0.0241,-0.0242,-0.0249,-0.0246,-0.0247,-0.0253,-0.0266,-0.0269,-0.029,-0.0295,-0.0325,-0.0332,-0.0341,-0.0378,-0.0381,-0.04,-0.0383,-0.0464,-0.0467,-0.0469,-0.0446,-0.0448,-0.045,0,0,0,0,0,-0.024,-0.0245,-0.0249,-0.0251,-0.0254,-0.0253,-0.0254,-0.0272,-0.0289,-0.0296,-0.0323,-0.0333,-0.04,-0.0379,-0.0383,-0.0403,-0.0462,-0.0466,-0.0469,-0.0445,-0.0448,-0.045,0,0,0,0,0,0,-0.0244,-0.0249,-0.0254,-0.0261,-0.0264,-0.0262,-0.0272,-0.0281,-0.0303,-0.0322,-0.0336,-0.0345,-0.0382,-0.0401,-0.0378,-0.0443,-0.0439,-0.0443,-0.0419,-0.0422,-0.0424,-0.04,-0.0384,0,0,0,0,0,-0.0245,-0.0252,-0.0254,-0.026,-0.0265,-0.027,-0.0276,-0.029,-0.0305,-0.0317,-0.0338,-0.0372,-0.0392,-0.0415,-0.0434,-0.0461,-0.0454,-0.0485,-0.0488,-0.0489,-0.0476,-0.0496,-0.0498,-0.0483,-0.0482,-0.0482,0,0,-0.0247,-0.0253,-0.0257,-0.0262,-0.0267,-0.0266,-0.0278,-0.0297,-0.0296,-0.0322,-0.0343,-0.0373,-0.04,-0.043,-0.0451,-0.0454,-0.0487,-0.0494,-0.0494,-0.048,-0.05,-0.0501,-0.0502,-0.0485,-0.0484,-0.0484,0,0,-0.0249,-0.0262,-0.0266,-0.0269,-0.0285,-0.0283,-0.0293,-0.0305,-0.0315,-0.0333,-0.0357,-0.0393,-0.043,-0.0446,-0.0459,-0.0486,-0.0491,-0.0519,-0.0515,-0.0535,-0.0535,-0.0536,-0.0504,-0.0502,-0.0529,-0.0529,-0.0529,0,-0.0255,-0.0256,-0.0267,-0.027,-0.0274,-0.0292,-0.0293,-0.0293,-0.0317,-0.0324,-0.0348,-0.0402,-0.0427,-0.0449,-0.0468,-0.0486,-0.0491,-0.0495,-0.0534,-0.0534,-0.0535,-0.0503,-0.0501,-0.0529,-0.0529,-0.0529,-0.0529,0,-0.0254,-0.0258,-0.0263,-0.0268,-0.0272,-0.0281,-0.0283,-0.0297,-0.0319,-0.0322,-0.0357,-0.0389,-0.0428,-0.045,-0.0465,-0.0496,-0.0493,-0.0522,-0.0515,-0.0534,-0.05,-0.0498,-0.0528,-0.0528,-0.0528,-0.0528,0,0,-0.0255,-0.026,-0.0262,-0.0262,-0.0276,-0.0276,-0.0279,-0.028,-0.0286,-0.0318,-0.0328,-0.0368,-0.0405,-0.0423,-0.0459,-0.0479,-0.0481,-0.0513,-0.0514,-0.0458,-0.0498,-0.0429,-0.042,-0.0532,-0.0532,-0.0533,-0.0461,0,-0.0251,-0.025,-0.0255,-0.0253,-0.0252,-0.0266,-0.0261,-0.027,-0.0285,-0.0301,-0.0332,-0.0361,-0.0388,-0.0427,-0.0449,-0.0486,-0.048,-0.0495,-0.0507,-0.0506,-0.0425,-0.0417,-0.0534,-0.0459,-0.0459,-0.0459,-0.0458,0,-0.0247,-0.0247,-0.0243,-0.0243,-0.0246,-0.0243,-0.0251,-0.0252,-0.0269,-0.0289,-0.0324,-0.0355,-0.0389,-0.0418,-0.0448,-0.0467,-0.0474,-0.0485,-0.0484,-0.0424,-0.0434,-0.0447,-0.0454,-0.0455,-0.0455,-0.0455,-0.0456,0,-0.0239,-0.0238,-0.0234,-0.0235,-0.0237,-0.0238,-0.0241,-0.0252,-0.0254,-0.0289,-0.0305,-0.0348,-0.0377,-0.0409,-0.0424,-0.046,-0.0431,-0.0485,-0.0404,-0.0398,-0.0489,-0.049,-0.0477,-0.0477,-0.0478,-0.0478,-0.0478,0,-0.0233,-0.0231,-0.0228,-0.0228,-0.0221,-0.023,-0.0229,-0.0242,-0.0259,-0.0259,-0.0306,-0.031,-0.0385,-0.038,-0.0404,-0.0374,-0.0412,-0.0379,-0.0379,-0.048,-0.0481,-0.0485,-0.0487,-0.0475,-0.0476,-0.0476,-0.0477,0,-0.0228,-0.0228,-0.0223,-0.0221,-0.0218,-0.0217,-0.0217,-0.0216,-0.0237,-0.0241,-0.0257,-0.0287,-0.029,-0.0303,-0.0332,-0.0329,-0.0321,-0.0289,-0.0336,-0.0343,-0.0278,-0.0281,-0.022,-0.0217,-0.0215,-0.0213,-0.0211,0,-0.0226,-0.0224,-0.0216,-0.0209,-0.0207,-0.0202,-0.0197,-0.0211,-0.0206,-0.0212,-0.0209,-0.0211,-0.0226,-0.0182,-0.0218,-0.0208,-0.0214,-0.019,-0.0288,-0.0248,-0.0254,-0.026,-0.0265,-0.0207,-0.0206,-0.0206,-0.0205,0,-0.0224,-0.0223,-0.0216,-0.0201,-0.019,-0.0174,-0.0164,-0.0153,-0.0163,-0.0182,-0.0162,-0.0159,-0.0132,-0.0152,-0.0113,-0.0122,-0.0214,-0.0165,-0.0173,-0.0264,-0.0231,-0.0241,-0.0249,-0.0196,-0.0197,-0.0198,-0.0199,0,-0.0223,-0.0215,-0.0205,-0.0188,-0.0172,-0.0143,-0.0139,-0.0119,-0.0116,-0.0123,-0.0108,-0.0107,-0.0123,-0.01,-0.0074,-0.0063,-0.0098,-0.0121,-0.0131,-0.0141,-0.0151,-0.01,-0.0004,0,0,0,0,0,-0.0219,-0.0204,-0.019,-0.0162,-0.0146,-0.0133,-0.0114,-0.011,-0.0107,-0.0088,-0.01,-0.0077,-0.0057,-0.0054,-0.0032,-0.0044,-0.0093,-0.0017,-0.0124,-0.0148,-0.0158,-0.0179,0,0,0,0,0,0,-0.0213,-0.0202,-0.0187,-0.0145,-0.012,-0.0094,-0.0077,-0.0075,-0.0061,-0.0068,-0.0058,-0.007,-0.0052,-0.0073,-0.0034,-0.0031,-0.0094,-0.0017,-0.0016,-0.0143,-0.0152,-0.016,-0.0185,0,0,0,0,0]},{"header":{"parameterUnit":"m.s-1","parameterCategory":2,"la1":30.2991,"la2":30.254,"lo1":-89.0895,"lo2":-89.0444,"dy":0.0017,"dx":0.0017,"nx":28,"ny":28,"refTime":"2023-11-08T03:00:00:Z","depth":"4","parameterNumber":3,"parameterNumberName":"V-component_of_CURRENTS"},"data":[0,0,0,0,0,0,0,0,0,0,0,0,0,0,0,0,0,0,0,0,0,0,0,0,0,0,0,0,0,0,0,0,0,0,0,0,0,0,0,0,0,0,0,0,0,0,0,0,0,0,0,0,0,0,0,0,0,0,-0.015,-0.015,0,-0.0178,-0.0178,-0.0178,-0.0231,-0.0232,-0.0233,-0.0234,-0.0275,-0.0275,-0.0275,0,0,0,0,0,0,0,0,0,0,0,0,0,-0.0113,-0.0113,-0.015,-0.015,-0.0151,-0.0178,-0.0178,-0.0178,-0.0231,-0.0232,-0.0234,-0.0235,-0.0275,-0.0275,-0.0275,0,0,0,0,0,0,0,0,0,0,0,0,0,-0.0133,-0.0113,-0.015,-0.0181,-0.0184,-0.0177,-0.0178,-0.0178,-0.0231,-0.0232,-0.0234,-0.0235,-0.0275,-0.0275,-0.0275,-0.0242,0,0,-0.0275,-0.0275,0,0,0,0,0,0,0,0,-0.0131,-0.0134,-0.0176,-0.0179,-0.0182,-0.0203,-0.018,-0.0201,-0.023,-0.0212,-0.0234,-0.0236,-0.0252,-0.0254,-0.0254,-0.0244,-0.0246,-0.0275,-0.0276,-0.0276,-0.0276,0,0,0,0,0,0,0,-0.013,-0.0133,-0.016,-0.0176,-0.018,-0.0183,-0.0188,-0.0184,-0.0222,-0.0214,-0.0218,-0.0222,-0.0254,-0.0254,-0.0255,-0.0247,-0.0275,-0.0276,-0.0276,-0.0276,-0.029,-0.029,0,0,0,0,0,0,-0.0128,-0.0131,-0.0159,-0.0161,-0.0161,-0.0183,-0.0188,-0.0194,-0.0222,-0.0227,-0.022,-0.0224,-0.0253,-0.0255,-0.0257,-0.0281,-0.0276,-0.0276,-0.0276,-0.029,-0.029,-0.029,0,0,0,0,0,0,-0.0127,-0.013,-0.0158,-0.0147,-0.0151,-0.0182,-0.0188,-0.0194,-0.0226,-0.0227,-0.0233,-0.025,-0.0254,-0.0257,-0.0283,-0.0281,-0.0276,-0.0276,-0.0289,-0.029,-0.029,-0.0289,0,0,0,0,0,0,-0.0126,-0.013,-0.0137,-0.0147,-0.0152,-0.0173,-0.0187,-0.0193,-0.0224,-0.023,-0.0253,-0.0257,-0.0256,-0.0283,-0.0283,-0.0281,-0.0276,-0.0289,-0.029,-0.029,-0.0289,-0.029,-0.029,0,0,0,0,0,-0.0125,-0.0128,-0.0138,-0.0141,-0.016,-0.0174,-0.0177,-0.0203,-0.0224,-0.0238,-0.026,-0.0258,-0.0287,-0.0284,-0.0284,-0.0281,-0.0289,-0.0289,-0.029,-0.0288,-0.0289,-0.029,0,0,0,0,0,0,-0.0118,-0.0134,-0.0145,-0.0155,-0.0172,-0.0184,-0.0194,-0.0216,-0.0242,-0.026,-0.0264,-0.0269,-0.0289,-0.0288,-0.0284,-0.0288,-0.0286,-0.0287,-0.0285,-0.0286,-0.0286,-0.0286,-0.0276,0,0,0,0,0,-0.0117,-0.0126,-0.0143,-0.0153,-0.0161,-0.0182,-0.0194,-0.0219,-0.024,-0.0256,-0.0269,-0.0282,-0.0283,-0.0292,-0.0295,-0.0297,-0.0287,-0.0296,-0.0297,-0.0297,-0.0298,-0.0278,-0.0276,-0.0293,-0.0293,-0.0293,0,0,-0.0118,-0.0127,-0.0134,-0.0152,-0.0165,-0.0182,-0.0195,-0.0224,-0.0243,-0.0253,-0.0283,-0.0289,-0.0287,-0.0292,-0.0299,-0.0296,-0.0288,-0.0298,-0.0299,-0.0299,-0.0278,-0.0277,-0.0275,-0.0294,-0.0293,-0.0293,0,0,-0.0118,-0.0131,-0.014,-0.0155,-0.0184,-0.0197,-0.0214,-0.0242,-0.0259,-0.0286,-0.0293,-0.0304,-0.0314,-0.0305,-0.0302,-0.0309,-0.0294,-0.0311,-0.0311,-0.0291,-0.0289,-0.0287,-0.0272,-0.0269,-0.0309,-0.0309,-0.0309,0,-0.012,-0.0133,-0.0145,-0.0159,-0.0173,-0.0209,-0.0228,-0.0243,-0.028,-0.0289,-0.0303,-0.0314,-0.0315,-0.0305,-0.0307,-0.0309,-0.0298,-0.0305,-0.0291,-0.0289,-0.0287,-0.0272,-0.0268,-0.0309,-0.0309,-0.0309,-0.0309,0,-0.0129,-0.0143,-0.0149,-0.0177,-0.0195,-0.0219,-0.0242,-0.0267,-0.0295,-0.031,-0.0323,-0.032,-0.0325,-0.0321,-0.0316,-0.03,-0.0297,-0.0294,-0.0285,-0.0285,-0.0269,-0.0266,-0.0309,-0.0309,-0.0309,-0.0309,0,0,-0.0123,-0.015,-0.0154,-0.0168,-0.0211,-0.0226,-0.0251,-0.0276,-0.0294,-0.032,-0.033,-0.0324,-0.033,-0.0326,-0.0316,-0.0297,-0.0273,-0.0291,-0.0289,-0.027,-0.0231,-0.0234,-0.023,-0.0265,-0.0264,-0.0263,-0.0225,0,-0.013,-0.0149,-0.0165,-0.0196,-0.0211,-0.0242,-0.0258,-0.029,-0.0311,-0.0329,-0.0326,-0.0334,-0.0328,-0.0327,-0.0309,-0.0282,-0.0263,-0.0284,-0.024,-0.0239,-0.0236,-0.0226,-0.0262,-0.0223,-0.0222,-0.0221,-0.0221,0,-0.0138,-0.0149,-0.017,-0.0201,-0.0211,-0.0234,-0.0268,-0.029,-0.0317,-0.0331,-0.034,-0.0344,-0.0324,-0.0321,-0.0272,-0.0285,-0.0261,-0.0239,-0.0237,-0.0238,-0.0234,-0.0224,-0.0214,-0.0214,-0.0215,-0.0215,-0.0216,0,-0.0129,-0.0156,-0.017,-0.0183,-0.0221,-0.0234,-0.0261,-0.0293,-0.0307,-0.0332,-0.0342,-0.0334,-0.0321,-0.0292,-0.0258,-0.0261,-0.0206,-0.0203,-0.0183,-0.0183,-0.0192,-0.0194,-0.0169,-0.0169,-0.0169,-0.017,-0.017,0,-0.0132,-0.0146,-0.0165,-0.0176,-0.0197,-0.0229,-0.0253,-0.028,-0.0307,-0.0319,-0.0339,-0.0332,-0.0311,-0.0284,-0.0256,-0.0209,-0.0202,-0.018,-0.0171,-0.0193,-0.0196,-0.0189,-0.0192,-0.0168,-0.0168,-0.0169,-0.0169,0,-0.0126,-0.0138,-0.0155,-0.0183,-0.0193,-0.0211,-0.0249,-0.0265,-0.0293,-0.0304,-0.031,-0.0319,-0.0282,-0.0262,-0.0211,-0.0199,-0.016,-0.0147,-0.0176,-0.0169,-0.0151,-0.0154,-0.0115,-0.0115,-0.0114,-0.0114,-0.0114,0,-0.0128,-0.0132,-0.0153,-0.0161,-0.0175,-0.02,-0.022,-0.0257,-0.027,-0.0287,-0.0287,-0.0269,-0.0266,-0.0201,-0.0184,-0.0142,-0.0137,-0.0127,-0.0137,-0.0149,-0.0144,-0.0148,-0.0151,-0.0114,-0.0114,-0.0114,-0.0114,0,-0.0127,-0.013,-0.0143,-0.0152,-0.0169,-0.0189,-0.0215,-0.0221,-0.0255,-0.0264,-0.0257,-0.0246,-0.021,-0.0185,-0.016,-0.0129,-0.014,-0.0124,-0.0125,-0.0134,-0.0147,-0.0143,-0.0147,-0.0113,-0.0113,-0.0113,-0.0113,0,-0.0126,-0.013,-0.0138,-0.0148,-0.0165,-0.0183,-0.0198,-0.0209,-0.0225,-0.024,-0.0227,-0.0213,-0.0203,-0.0176,-0.0149,-0.0127,-0.0119,-0.0119,-0.0119,-0.012,-0.014,-0.0159,-0.0116,0,0,0,0,0,-0.0127,-0.0129,-0.0136,-0.015,-0.0163,-0.0173,-0.0198,-0.0211,-0.0223,-0.0212,-0.0224,-0.0192,-0.0166,-0.0161,-0.0135,-0.0145,-0.012,-0.0116,-0.012,-0.0108,-0.0109,-0.0134,0,0,0,0,0,0,-0.013,-0.0135,-0.0134,-0.0146,-0.0153,-0.0174,-0.019,-0.0201,-0.0197,-0.0201,-0.0183,-0.0182,-0.0152,-0.0166,-0.0128,-0.0125,-0.0126,-0.0103,-0.0103,-0.0108,-0.0109,-0.0109,-0.0135,0,0,0,0,0]}]]